#timestamp,LO_Frequency,Hit,StdDev 
1653951615.7,286047000.0,N
1653951635.5,286046999.5,N
1653951655.4,286047011.9,N
1653951675.2,286046995.7,N
1653951695.0,286046996.3,N
1653951695.9,286046996.3,N
1653951715.8,286046997.6,N
1653951735.6,286046999.3,N
1653951755.5,286047002.8,N
1653951775.3,286046999.8,N
1653951795.1,286047003.9,N
1653951815.9,286047003.1,N
1653951835.7,286047003.2,N
1653951855.5,286047002.3,N
1653951875.4,286046998.1,N
1653951895.2,286047000.2,N
1653951915.0,286047005.6,N
1653951916.0,286047005.6,N
1653951935.8,286047005.7,N
1653951955.6,286047005.4,N
1653951975.5,286047004.7,N
1653951995.3,286047007.6,N
1653952015.1,286047006.8,N
1653952035.9,286047010.2,N
1653952055.7,286047011.7,N
1653952075.6,286047011.4,N
1653952095.4,286047012.6,N
1653952115.2,286047014.8,Y
1653952135.1,286047013.6,P
1653952136.0,286047013.6,N
1653952155.8,286047013.5,N
1653952175.6,286047014.7,Y
1653952195.5,286047007.9,P
1653952215.3,286047009.4,P
1653952235.2,286047013.2,P
1653952255.9,286047014.5,Y
1653952275.7,286047006.4,P
1653952295.6,286047007.7,P
1653952315.4,286047011.0,P
1653952335.2,286047012.6,Y
1653952355.1,286047005.0,P
1653952356.0,286047005.0,N
1653952375.8,286047008.9,P
1653952395.7,286047010.0,Y
1653952415.5,286047003.5,P
1653952435.3,286047005.0,N
1653952455.2,286047011.9,P
1653952475.0,286047006.2,N
1653952475.9,286047006.2,N
1653952495.8,286047006.6,N
1653952515.6,286047007.0,N
1653952535.4,286047005.4,N
1653952555.3,286047004.4,N
1653952575.1,286046999.9,N
1653952595.8,286046998.4,N
1653952615.7,286046997.5,N
1653952635.5,286046994.5,N
1653952655.4,286046992.3,N
1653952675.2,286046988.5,N
1653952695.0,286046987.0,N
1653952695.9,286046987.0,N
1653952715.8,286046988.2,N
1653952735.6,286046989.0,N
1653952755.4,286046990.9,N
1653952775.3,286046990.2,N
1653952795.1,286046994.4,N
1653952815.9,286046993.6,N
1653952835.7,286046996.4,N
1653952855.5,286046994.6,N
1653952875.4,286046995.5,N
1653952895.2,286046997.9,N
1653952915.0,286046997.5,N
1653952915.9,286046997.5,N
1653952935.8,286046996.8,N
1653952955.6,286046999.0,N
1653952975.4,286047000.5,N
1653952995.3,286047003.7,N
1653953015.1,286047004.1,N
1653953035.9,286047001.5,N
1653953055.7,286047004.0,N
1653953075.5,286047001.5,N
1653953095.4,286047003.7,N
1653953115.2,286047004.0,N
1653953135.0,286047002.6,N
1653953135.9,286047002.6,N
1653953155.8,286046998.7,N
1653953175.6,286046995.3,N
1653953195.5,286046994.9,N
1653953215.3,286046995.8,N
1653953235.1,286046990.3,N
1653953255.9,286046991.9,N
1653953275.7,286046992.7,N
1653953295.5,286046992.5,N
1653953315.4,286046991.3,N
1653953335.2,286046987.3,N
1653953355.1,286046985.7,Y
1653953356.0,286046985.7,P
1653953375.8,286046985.3,N
1653953395.6,286046988.0,N
1653953415.5,286046987.7,N
1653953435.3,286046985.8,Y
1653953455.2,286046993.4,P
1653953475.9,286046994.6,N
1653953495.7,286046996.4,N
1653953515.6,286046992.2,N
1653953535.4,286046993.2,N
1653953555.2,286046992.9,Y
1653953575.1,286046999.7,P
1653953576.0,286046999.7,N
1653953595.8,286047001.3,N
1653953615.7,286047001.6,N
1653953635.5,286047005.3,N
1653953655.3,286047007.1,N
1653953675.2,286047008.8,N
1653953695.0,286047010.7,N
1653953695.9,286047010.7,N
1653953715.8,286047014.0,N
1653953735.6,286047011.6,N
1653953755.4,286047009.5,N
1653953775.3,286047010.3,N
1653953795.1,286047006.3,N
1653953815.8,286047009.0,N
1653953835.7,286047010.4,N
1653953855.5,286047009.7,N
1653953875.4,286047011.8,N
1653953895.2,286047009.8,N
1653953915.0,286047009.4,N
1653953915.9,286047009.4,N
1653953935.8,286047011.9,N
1653953955.6,286047012.3,N
1653953975.5,286047012.8,N
1653953995.3,286047012.9,N
1653954015.1,286047015.4,Y
1653954035.9,286047004.5,P
1653954055.7,286047003.7,N
1653954075.5,286047003.7,N
1653954095.4,286047002.3,N
1653954115.2,286046998.4,N
1653954135.1,286046996.6,N
1653954136.0,286046996.6,N
1653954155.8,286046997.8,N
1653954175.6,286046994.6,N
1653954195.5,286046991.7,N
1653954215.3,286046991.2,N
1653954235.1,286046988.4,N
1653954255.9,286046983.4,N
1653954275.7,286046978.3,Y
1653954295.6,286046978.1,P
1653954345.4,286046977.2,E
1653954355.3,286046985.9,N
1653954375.2,286046998.7,P
1653954395.0,286046998.4,N
1653954395.9,286046998.4,N
1653954415.8,286046998.1,N
1653954435.6,286047004.3,N
1653954455.4,286047004.8,N
1653954475.3,286047010.3,N
1653954495.1,286047011.8,N
1653954515.8,286047011.3,N
1653954535.7,286047010.5,N
1653954555.5,286047010.2,N
1653954575.3,286047010.2,N
1653954595.2,286047010.4,N
1653954615.0,286047013.7,N
1653954615.9,286047013.7,N
1653954635.8,286047017.7,N
1653954655.6,286047022.3,N
1653954675.4,286047023.8,N
1653954695.3,286047030.8,Y
1653954715.1,286047024.0,P
1653954735.9,286047024.2,P
1653954755.7,286047026.6,P
1653954775.5,286047028.2,Y
1653954795.4,286047006.4,P
1653954815.2,286047009.1,N
1653954835.0,286047007.7,N
1653954835.9,286047007.7,N
1653954855.8,286047008.8,N
1653954875.6,286047008.2,N
1653954895.5,286047011.8,N
1653954915.3,286047013.4,Y
1653954935.1,286047003.5,P
1653954955.9,286047006.0,N
1653954975.7,286047005.5,N
1653954995.6,286047006.1,N
1653955015.4,286047008.2,Y
1653955035.3,286047001.8,P
1653955055.1,286047005.1,N
1653955056.0,286047005.1,N
1653955075.8,286047005.3,Y
1653955095.7,286047002.3,P
1653955115.5,286047001.8,N
1653955135.3,286047001.6,N
1653955155.2,286047003.6,Y
1653955175.0,286047003.6,P
1653955175.9,286047003.6,P
1653955195.8,286047005.2,P
